Weather in Zhenjiang

China     32°11′55″N   119°27′03″E
В апреле 2022 года жителям России запретили посещать сайт meteo.paraplan.net по решению Генеральной прокуратуры. Аудитория сайта уменьшилась в 10 раз. Владельцы сайта не видят смысла в поддержке погодного сервера в таких условиях. Сайт будет закрыт в октябре.
temp.,
°C
wind,
m/s
gust,
m/s
humid.,
%
clouds,
%
prec.,
mm/h
press.,
hPa
HPBL,
m
25 september, sun
sun2523:00+19ese3769100 0.0 1017362
02:00+18ese257399 0.0 1016222
05:00+18ese3674100 0.0 1016232
08:00+20ese356387 0.0 1017452
11:00+25ese334799 0.0 10171386
14:00+25e3343100 0.0 10151404
17:00+24ne235199 0.0 1015161
20:00+20e5965100 0.0 1016316
26 september, mon
mon2623:00+19ese3768100 0.0 1016295
02:00+19ese3671100 0.0 1016223
05:00+18ese4778100 0.3 1016296
08:00+18ese476984 0.4 1018369
11:00+22ese4454100 0.0 1018867
14:00+25e434536 0.0 10161328
17:00+23ene445883 0.0 10161005
20:00+21e4770100 0.0 1017429
27 september, tue
tue2723:00+18e3778100 0.0 1017261
02:00+17e3580100 0.0 1016142
05:00+17e3585100 0.0 1016110
08:00+20e466698 0.0 1017431
11:00+25e4545100 0.0 10161092
14:00+27e5540100 0.0 10131484
17:00+25e575387 0.0 1014616
20:00+20e487395 0.0 1015224
28 september, wed
wed2823:00+19e368199 0.0 1015197
02:00+19e2581100 0.0 1014220
05:00+19e2583100 0.0 1013188
08:00+20ne3583100 0.0 1015257
11:00+21e368599 0.0 1014317
14:00+23e2370100 0.0 1012541
17:00+23ne357099 0.0 1012576
20:00+20ene3790100 0.0 1014162
29 september, thu
thu2923:00+19e379188 0.0 1014173
02:00+20ene259293 0.0 1013157
05:00+20e369290 0.0 1013244
08:00+22e478291 0.2 1015427
11:00+23e568051 0.2 1014531
14:00+26ese567097 1.0 1012979
17:00+24ese578048 0.4 1012596
20:00+21ese4993100 0.4 1014299